Location: �quirre
(50.4736°N, 2.2351°E)
Time: 15:28:56
(UTC+00:00)

Cosmos 1726 - Pass Details

Date: 07 August 2020
Orbit: 482 x 499 km, 82.5° (Epoch: 18 September)

Event Time Altitude Azimuth Distance (km) Brightness Sun altitude
Exits shadow 03:38:41 - 205° (SSW) 1,930 4.6 -7.5°
Reaches altitude 10° 03:39:18 10° 207° (SSW) 1,685 4.2 -7.4°
Maximum altitude 03:42:53 50° 284° (WNW) 637 2.4 -6.9°
Drops below altitude 10° 03:46:30 10° 1° (N) 1,690 5.4 -6.5°
Sets 03:48:39 0° 6° (N) 2,573 6.4 -6.2°
